Index of /20260412/WXO-DD/model_gdps/15km/12/048
Name Last modified Size Description
Parent Directory -
20260412T12Z_MSC_GDPS_AbsoluteVorticity_IsbL-0200_LatLon0.15_PT048H.grib2 2026-04-12 16:24 1.2M
20260412T12Z_MSC_GDPS_AbsoluteVorticity_IsbL-0250_LatLon0.15_PT048H.grib2 2026-04-12 16:24 1.3M
20260412T12Z_MSC_GDPS_AbsoluteVorticity_IsbL-0500_LatLon0.15_PT048H.grib2 2026-04-12 16:24 1.2M
20260412T12Z_MSC_GDPS_AbsoluteVorticity_IsbL-0700_LatLon0.15_PT048H.grib2 2026-04-12 16:24 1.3M
20260412T12Z_MSC_GDPS_AbsoluteVorticity_IsbL-0850_LatLon0.15_PT048H.grib2 2026-04-12 16:24 1.6M
20260412T12Z_MSC_GDPS_AirTemp-Max_AGL-2m_LatLon0.15_PT048H.grib2 2026-04-12 16:24 742K
20260412T12Z_MSC_GDPS_AirTemp-Min_AGL-2m_LatLon0.15_PT048H.grib2 2026-04-12 16:24 786K
20260412T12Z_MSC_GDPS_AirTemp_AGL-120m_LatLon0.15_PT048H.grib2 2026-04-12 16:24 905K
20260412T12Z_MSC_GDPS_AirTemp_AGL-2m_LatLon0.15_PT048H.grib2 2026-04-12 16:24 1.0M
20260412T12Z_MSC_GDPS_AirTemp_AGL-40m_LatLon0.15_PT048H.grib2 2026-04-12 16:24 923K
20260412T12Z_MSC_GDPS_AirTemp_AGL-80m_LatLon0.15_PT048H.grib2 2026-04-12 16:24 913K
20260412T12Z_MSC_GDPS_AirTemp_IsbL-0001_LatLon0.15_PT048H.grib2 2026-04-12 16:24 697K
20260412T12Z_MSC_GDPS_AirTemp_IsbL-0005_LatLon0.15_PT048H.grib2 2026-04-12 16:24 680K
20260412T12Z_MSC_GDPS_AirTemp_IsbL-0010_LatLon0.15_PT048H.grib2 2026-04-12 16:24 758K
20260412T12Z_MSC_GDPS_AirTemp_IsbL-0020_LatLon0.15_PT048H.grib2 2026-04-12 16:24 701K
20260412T12Z_MSC_GDPS_AirTemp_IsbL-0030_LatLon0.15_PT048H.grib2 2026-04-12 16:24 749K
20260412T12Z_MSC_GDPS_AirTemp_IsbL-0050_LatLon0.15_PT048H.grib2 2026-04-12 16:24 819K
20260412T12Z_MSC_GDPS_AirTemp_IsbL-0100_LatLon0.15_PT048H.grib2 2026-04-12 16:24 955K
20260412T12Z_MSC_GDPS_AirTemp_IsbL-0150_LatLon0.15_PT048H.grib2 2026-04-12 16:24 967K
20260412T12Z_MSC_GDPS_AirTemp_IsbL-0175_LatLon0.15_PT048H.grib2 2026-04-12 16:24 953K
20260412T12Z_MSC_GDPS_AirTemp_IsbL-0200_LatLon0.15_PT048H.grib2 2026-04-12 16:24 968K
20260412T12Z_MSC_GDPS_AirTemp_IsbL-0225_LatLon0.15_PT048H.grib2 2026-04-12 16:24 1.0M
20260412T12Z_MSC_GDPS_AirTemp_IsbL-0250_LatLon0.15_PT048H.grib2 2026-04-12 16:24 1.0M
20260412T12Z_MSC_GDPS_AirTemp_IsbL-0275_LatLon0.15_PT048H.grib2 2026-04-12 16:24 947K
20260412T12Z_MSC_GDPS_AirTemp_IsbL-0300_LatLon0.15_PT048H.grib2 2026-04-12 16:24 958K
20260412T12Z_MSC_GDPS_AirTemp_IsbL-0350_LatLon0.15_PT048H.grib2 2026-04-12 16:24 933K
20260412T12Z_MSC_GDPS_AirTemp_IsbL-0400_LatLon0.15_PT048H.grib2 2026-04-12 16:24 943K
20260412T12Z_MSC_GDPS_AirTemp_IsbL-0450_LatLon0.15_PT048H.grib2 2026-04-12 16:24 964K
20260412T12Z_MSC_GDPS_AirTemp_IsbL-0500_LatLon0.15_PT048H.grib2 2026-04-12 16:24 1.0M
20260412T12Z_MSC_GDPS_AirTemp_IsbL-0550_LatLon0.15_PT048H.grib2 2026-04-12 16:24 1.0M
20260412T12Z_MSC_GDPS_AirTemp_IsbL-0600_LatLon0.15_PT048H.grib2 2026-04-12 16:24 893K
20260412T12Z_MSC_GDPS_AirTemp_IsbL-0650_LatLon0.15_PT048H.grib2 2026-04-12 16:24 921K
20260412T12Z_MSC_GDPS_AirTemp_IsbL-0700_LatLon0.15_PT048H.grib2 2026-04-12 16:24 956K
20260412T12Z_MSC_GDPS_AirTemp_IsbL-0750_LatLon0.15_PT048H.grib2 2026-04-12 16:24 1.0M
20260412T12Z_MSC_GDPS_AirTemp_IsbL-0800_LatLon0.15_PT048H.grib2 2026-04-12 16:24 1.1M
20260412T12Z_MSC_GDPS_AirTemp_IsbL-0850_LatLon0.15_PT048H.grib2 2026-04-12 16:24 1.1M
20260412T12Z_MSC_GDPS_AirTemp_IsbL-0875_LatLon0.15_PT048H.grib2 2026-04-12 16:24 1.2M
20260412T12Z_MSC_GDPS_AirTemp_IsbL-0900_LatLon0.15_PT048H.grib2 2026-04-12 16:24 1.1M
20260412T12Z_MSC_GDPS_AirTemp_IsbL-0925_LatLon0.15_PT048H.grib2 2026-04-12 16:24 1.1M
20260412T12Z_MSC_GDPS_AirTemp_IsbL-0950_LatLon0.15_PT048H.grib2 2026-04-12 16:24 1.1M
20260412T12Z_MSC_GDPS_AirTemp_IsbL-0970_LatLon0.15_PT048H.grib2 2026-04-12 16:24 1.1M
20260412T12Z_MSC_GDPS_AirTemp_IsbL-0985_LatLon0.15_PT048H.grib2 2026-04-12 16:24 1.1M
20260412T12Z_MSC_GDPS_AirTemp_IsbL-1000_LatLon0.15_PT048H.grib2 2026-04-12 16:24 1.1M
20260412T12Z_MSC_GDPS_AirTemp_IsbL-1015_LatLon0.15_PT048H.grib2 2026-04-12 16:24 1.1M
20260412T12Z_MSC_GDPS_Albedo_Sfc_LatLon0.15_PT048H.grib2 2026-04-12 16:24 245K
20260412T12Z_MSC_GDPS_CAPE_Sfc_LatLon0.15_PT048H.grib2 2026-04-12 16:24 3.8M
20260412T12Z_MSC_GDPS_CIN_Sfc_LatLon0.15_PT048H.grib2 2026-04-12 16:24 2.9M
20260412T12Z_MSC_GDPS_CloudWater_EAtm_LatLon0.15_PT048H.grib2 2026-04-12 16:24 527K
20260412T12Z_MSC_GDPS_ConvectivePrecip-Accum_Sfc_LatLon0.15_PT048H.grib2 2026-04-12 16:24 2.6M
20260412T12Z_MSC_GDPS_DewPointDepression_AGL-2m_LatLon0.15_PT048H.grib2 2026-04-12 16:24 749K
20260412T12Z_MSC_GDPS_DewPointDepression_IsbL-0010_LatLon0.15_PT048H.grib2 2026-04-12 16:24 5.5K
20260412T12Z_MSC_GDPS_DewPointDepression_IsbL-0020_LatLon0.15_PT048H.grib2 2026-04-12 16:24 48K
20260412T12Z_MSC_GDPS_DewPointDepression_IsbL-0030_LatLon0.15_PT048H.grib2 2026-04-12 16:24 68K
20260412T12Z_MSC_GDPS_DewPointDepression_IsbL-0050_LatLon0.15_PT048H.grib2 2026-04-12 16:24 351K
20260412T12Z_MSC_GDPS_DewPointDepression_IsbL-0100_LatLon0.15_PT048H.grib2 2026-04-12 16:24 369K
20260412T12Z_MSC_GDPS_DewPointDepression_IsbL-0150_LatLon0.15_PT048H.grib2 2026-04-12 16:24 450K
20260412T12Z_MSC_GDPS_DewPointDepression_IsbL-0175_LatLon0.15_PT048H.grib2 2026-04-12 16:24 519K
20260412T12Z_MSC_GDPS_DewPointDepression_IsbL-0200_LatLon0.15_PT048H.grib2 2026-04-12 16:24 618K
20260412T12Z_MSC_GDPS_DewPointDepression_IsbL-0225_LatLon0.15_PT048H.grib2 2026-04-12 16:24 761K
20260412T12Z_MSC_GDPS_DewPointDepression_IsbL-0250_LatLon0.15_PT048H.grib2 2026-04-12 16:24 862K
20260412T12Z_MSC_GDPS_DewPointDepression_IsbL-0275_LatLon0.15_PT048H.grib2 2026-04-12 16:24 887K
20260412T12Z_MSC_GDPS_DewPointDepression_IsbL-0300_LatLon0.15_PT048H.grib2 2026-04-12 16:24 929K
20260412T12Z_MSC_GDPS_DewPointDepression_IsbL-0350_LatLon0.15_PT048H.grib2 2026-04-12 16:24 964K
20260412T12Z_MSC_GDPS_DewPointDepression_IsbL-0400_LatLon0.15_PT048H.grib2 2026-04-12 16:24 1.0M
20260412T12Z_MSC_GDPS_DewPointDepression_IsbL-0450_LatLon0.15_PT048H.grib2 2026-04-12 16:24 1.0M
20260412T12Z_MSC_GDPS_DewPointDepression_IsbL-0500_LatLon0.15_PT048H.grib2 2026-04-12 16:24 1.0M
20260412T12Z_MSC_GDPS_DewPointDepression_IsbL-0550_LatLon0.15_PT048H.grib2 2026-04-12 16:24 1.0M
20260412T12Z_MSC_GDPS_DewPointDepression_IsbL-0600_LatLon0.15_PT048H.grib2 2026-04-12 16:24 1.1M
20260412T12Z_MSC_GDPS_DewPointDepression_IsbL-0650_LatLon0.15_PT048H.grib2 2026-04-12 16:24 1.1M
20260412T12Z_MSC_GDPS_DewPointDepression_IsbL-0700_LatLon0.15_PT048H.grib2 2026-04-12 16:24 1.1M
20260412T12Z_MSC_GDPS_DewPointDepression_IsbL-0750_LatLon0.15_PT048H.grib2 2026-04-12 16:24 1.1M
20260412T12Z_MSC_GDPS_DewPointDepression_IsbL-0800_LatLon0.15_PT048H.grib2 2026-04-12 16:24 1.2M
20260412T12Z_MSC_GDPS_DewPointDepression_IsbL-0850_LatLon0.15_PT048H.grib2 2026-04-12 16:24 1.2M
20260412T12Z_MSC_GDPS_DewPointDepression_IsbL-0875_LatLon0.15_PT048H.grib2 2026-04-12 16:24 1.1M
20260412T12Z_MSC_GDPS_DewPointDepression_IsbL-0900_LatLon0.15_PT048H.grib2 2026-04-12 16:24 1.0M
20260412T12Z_MSC_GDPS_DewPointDepression_IsbL-0925_LatLon0.15_PT048H.grib2 2026-04-12 16:24 1.0M
20260412T12Z_MSC_GDPS_DewPointDepression_IsbL-0950_LatLon0.15_PT048H.grib2 2026-04-12 16:24 1.0M
20260412T12Z_MSC_GDPS_DewPointDepression_IsbL-0970_LatLon0.15_PT048H.grib2 2026-04-12 16:24 1.0M
20260412T12Z_MSC_GDPS_DewPointDepression_IsbL-0985_LatLon0.15_PT048H.grib2 2026-04-12 16:24 1.0M
20260412T12Z_MSC_GDPS_DewPointDepression_IsbL-1000_LatLon0.15_PT048H.grib2 2026-04-12 16:24 971K
20260412T12Z_MSC_GDPS_DewPointDepression_IsbL-1015_LatLon0.15_PT048H.grib2 2026-04-12 16:24 909K
20260412T12Z_MSC_GDPS_DewPoint_AGL-2m_LatLon0.15_PT048H.grib2 2026-04-12 16:24 615K
20260412T12Z_MSC_GDPS_DownwardLongwaveRadiationFlux-Accum_Sfc_LatLon0.15_PT048H.grib2 2026-04-12 16:24 780K
20260412T12Z_MSC_GDPS_DownwardShortwaveRadiationFlux-Accum_NTAtm_LatLon0.15_PT048H.grib2 2026-04-12 16:24 256K
20260412T12Z_MSC_GDPS_DownwardShortwaveRadiationFlux-Accum_Sfc_LatLon0.15_PT048H.grib2 2026-04-12 16:24 1.0M
20260412T12Z_MSC_GDPS_FreezingRain-Accum12h_Sfc_LatLon0.15_PT048H.grib2 2026-04-12 16:24 42K
20260412T12Z_MSC_GDPS_FreezingRain-Accum1h_Sfc_LatLon0.15_PT048H.grib2 2026-04-12 16:24 34K
20260412T12Z_MSC_GDPS_FreezingRain-Accum24h_Sfc_LatLon0.15_PT048H.grib2 2026-04-12 16:24 66K
20260412T12Z_MSC_GDPS_FreezingRain-Accum3h_Sfc_LatLon0.15_PT048H.grib2 2026-04-12 16:24 40K
20260412T12Z_MSC_GDPS_FreezingRain-Accum6h_Sfc_LatLon0.15_PT048H.grib2 2026-04-12 16:24 56K
20260412T12Z_MSC_GDPS_FreezingRain-Accum_Sfc_LatLon0.15_PT048H.grib2 2026-04-12 16:24 138K
20260412T12Z_MSC_GDPS_GeopotentialHeight_IsbL-0001_LatLon0.15_PT048H.grib2 2026-04-12 16:24 543K
20260412T12Z_MSC_GDPS_GeopotentialHeight_IsbL-0005_LatLon0.15_PT048H.grib2 2026-04-12 16:24 449K
20260412T12Z_MSC_GDPS_GeopotentialHeight_IsbL-0010_LatLon0.15_PT048H.grib2 2026-04-12 16:24 591K
20260412T12Z_MSC_GDPS_GeopotentialHeight_IsbL-0020_LatLon0.15_PT048H.grib2 2026-04-12 16:24 586K
20260412T12Z_MSC_GDPS_GeopotentialHeight_IsbL-0030_LatLon0.15_PT048H.grib2 2026-04-12 16:24 586K
20260412T12Z_MSC_GDPS_GeopotentialHeight_IsbL-0050_LatLon0.15_PT048H.grib2 2026-04-12 16:24 579K
20260412T12Z_MSC_GDPS_GeopotentialHeight_IsbL-0100_LatLon0.15_PT048H.grib2 2026-04-12 16:24 619K
20260412T12Z_MSC_GDPS_GeopotentialHeight_IsbL-0150_LatLon0.15_PT048H.grib2 2026-04-12 16:24 638K
20260412T12Z_MSC_GDPS_GeopotentialHeight_IsbL-0175_LatLon0.15_PT048H.grib2 2026-04-12 16:24 640K
20260412T12Z_MSC_GDPS_GeopotentialHeight_IsbL-0200_LatLon0.15_PT048H.grib2 2026-04-12 16:24 644K
20260412T12Z_MSC_GDPS_GeopotentialHeight_IsbL-0225_LatLon0.15_PT048H.grib2 2026-04-12 16:24 647K
20260412T12Z_MSC_GDPS_GeopotentialHeight_IsbL-0250_LatLon0.15_PT048H.grib2 2026-04-12 16:24 645K
20260412T12Z_MSC_GDPS_GeopotentialHeight_IsbL-0275_LatLon0.15_PT048H.grib2 2026-04-12 16:24 645K
20260412T12Z_MSC_GDPS_GeopotentialHeight_IsbL-0300_LatLon0.15_PT048H.grib2 2026-04-12 16:24 645K
20260412T12Z_MSC_GDPS_GeopotentialHeight_IsbL-0350_LatLon0.15_PT048H.grib2 2026-04-12 16:24 635K
20260412T12Z_MSC_GDPS_GeopotentialHeight_IsbL-0400_LatLon0.15_PT048H.grib2 2026-04-12 16:24 623K
20260412T12Z_MSC_GDPS_GeopotentialHeight_IsbL-0450_LatLon0.15_PT048H.grib2 2026-04-12 16:24 542K
20260412T12Z_MSC_GDPS_GeopotentialHeight_IsbL-0500_LatLon0.15_PT048H.grib2 2026-04-12 16:24 531K
20260412T12Z_MSC_GDPS_GeopotentialHeight_IsbL-0550_LatLon0.15_PT048H.grib2 2026-04-12 16:24 522K
20260412T12Z_MSC_GDPS_GeopotentialHeight_IsbL-0600_LatLon0.15_PT048H.grib2 2026-04-12 16:24 685K
20260412T12Z_MSC_GDPS_GeopotentialHeight_IsbL-0650_LatLon0.15_PT048H.grib2 2026-04-12 16:24 684K
20260412T12Z_MSC_GDPS_GeopotentialHeight_IsbL-0700_LatLon0.15_PT048H.grib2 2026-04-12 16:24 687K
20260412T12Z_MSC_GDPS_GeopotentialHeight_IsbL-0750_LatLon0.15_PT048H.grib2 2026-04-12 16:24 692K
20260412T12Z_MSC_GDPS_GeopotentialHeight_IsbL-0800_LatLon0.15_PT048H.grib2 2026-04-12 16:24 703K
20260412T12Z_MSC_GDPS_GeopotentialHeight_IsbL-0850_LatLon0.15_PT048H.grib2 2026-04-12 16:24 712K
20260412T12Z_MSC_GDPS_GeopotentialHeight_IsbL-0875_LatLon0.15_PT048H.grib2 2026-04-12 16:24 716K
20260412T12Z_MSC_GDPS_GeopotentialHeight_IsbL-0900_LatLon0.15_PT048H.grib2 2026-04-12 16:24 725K
20260412T12Z_MSC_GDPS_GeopotentialHeight_IsbL-0925_LatLon0.15_PT048H.grib2 2026-04-12 16:24 733K
20260412T12Z_MSC_GDPS_GeopotentialHeight_IsbL-0950_LatLon0.15_PT048H.grib2 2026-04-12 16:24 738K
20260412T12Z_MSC_GDPS_GeopotentialHeight_IsbL-0970_LatLon0.15_PT048H.grib2 2026-04-12 16:24 749K
20260412T12Z_MSC_GDPS_GeopotentialHeight_IsbL-0985_LatLon0.15_PT048H.grib2 2026-04-12 16:24 764K
20260412T12Z_MSC_GDPS_GeopotentialHeight_IsbL-1000_LatLon0.15_PT048H.grib2 2026-04-12 16:24 784K
20260412T12Z_MSC_GDPS_GeopotentialHeight_IsbL-1015_LatLon0.15_PT048H.grib2 2026-04-12 16:24 613K
20260412T12Z_MSC_GDPS_Humidex_Sfc_LatLon0.15_PT048H.grib2 2026-04-12 16:24 5.3M
20260412T12Z_MSC_GDPS_IcePellets-Accum12h_Sfc_LatLon0.15_PT048H.grib2 2026-04-12 16:24 21K
20260412T12Z_MSC_GDPS_IcePellets-Accum1h_Sfc_LatLon0.15_PT048H.grib2 2026-04-12 16:24 12K
20260412T12Z_MSC_GDPS_IcePellets-Accum24h_Sfc_LatLon0.15_PT048H.grib2 2026-04-12 16:24 36K
20260412T12Z_MSC_GDPS_IcePellets-Accum3h_Sfc_LatLon0.15_PT048H.grib2 2026-04-12 16:24 16K
20260412T12Z_MSC_GDPS_IcePellets-Accum6h_Sfc_LatLon0.15_PT048H.grib2 2026-04-12 16:24 23K
20260412T12Z_MSC_GDPS_IcePellets-Accum_Sfc_LatLon0.15_PT048H.grib2 2026-04-12 16:24 67K
20260412T12Z_MSC_GDPS_KIndex_Sfc_LatLon0.15_PT048H.grib2 2026-04-12 16:24 6.4M
20260412T12Z_MSC_GDPS_LatentHeatNetFlux_Sfc_LatLon0.15_PT048H.grib2 2026-04-12 16:24 543K
20260412T12Z_MSC_GDPS_LiftedIndex-MU-VT_IsbL-0500_LatLon0.15_PT048H.grib2 2026-04-12 16:24 5.4M
20260412T12Z_MSC_GDPS_NetLongwaveRadiationFlux-Accum_Sfc_LatLon0.15_PT048H.grib2 2026-04-12 16:24 1.1M
20260412T12Z_MSC_GDPS_NetShortwaveRadiationFlux-Accum_Sfc_LatLon0.15_PT048H.grib2 2026-04-12 16:24 1.0M
20260412T12Z_MSC_GDPS_O3MixingRatio_LatLon0.15_PT048H.grib2 2026-04-12 17:05 2.0M
20260412T12Z_MSC_GDPS_O3_EAtm_LatLon0.15_PT048H.grib2 2026-04-12 17:05 2.1M
20260412T12Z_MSC_GDPS_PlanetaryBoundaryLayerHeight_Sfc_LatLon0.15_PT048H.grib2 2026-04-12 16:24 2.5M
20260412T12Z_MSC_GDPS_Precip-Accum12h_Sfc_LatLon0.15_PT048H.grib2 2026-04-12 16:24 3.9M
20260412T12Z_MSC_GDPS_Precip-Accum1h_Sfc_LatLon0.15_PT048H.grib2 2026-04-12 16:24 3.2M
20260412T12Z_MSC_GDPS_Precip-Accum24h_Sfc_LatLon0.15_PT048H.grib2 2026-04-12 16:24 4.5M
20260412T12Z_MSC_GDPS_Precip-Accum3h_Sfc_LatLon0.15_PT048H.grib2 2026-04-12 16:24 3.5M
20260412T12Z_MSC_GDPS_Precip-Accum6h_Sfc_LatLon0.15_PT048H.grib2 2026-04-12 16:24 3.8M
20260412T12Z_MSC_GDPS_Precip-Accum_Sfc_LatLon0.15_PT048H.grib2 2026-04-12 16:24 4.5M
20260412T12Z_MSC_GDPS_PrecipRate_Sfc_LatLon0.15_PT048H.grib2 2026-04-12 16:24 2.9M
20260412T12Z_MSC_GDPS_PrecipType-Instant_Sfc_LatLon0.15_PT048H.grib2 2026-04-12 16:24 1.6M
20260412T12Z_MSC_GDPS_Pressure_MSL_LatLon0.15_PT048H.grib2 2026-04-12 16:24 828K
20260412T12Z_MSC_GDPS_Pressure_PVU-1.5_LatLon0.15_PT048H.grib2 2026-04-12 16:24 5.7M
20260412T12Z_MSC_GDPS_Pressure_PVU-1_LatLon0.15_PT048H.grib2 2026-04-12 16:24 6.0M
20260412T12Z_MSC_GDPS_Pressure_PVU-2_LatLon0.15_PT048H.grib2 2026-04-12 16:24 5.6M
20260412T12Z_MSC_GDPS_Pressure_Sfc_LatLon0.15_PT048H.grib2 2026-04-12 16:24 1.1M
20260412T12Z_MSC_GDPS_RadiativeTemp_Sfc_LatLon0.15_PT048H.grib2 2026-04-12 16:24 674K
20260412T12Z_MSC_GDPS_Rain-Accum12h_Sfc_LatLon0.15_PT048H.grib2 2026-04-12 16:24 2.5M
20260412T12Z_MSC_GDPS_Rain-Accum1h_Sfc_LatLon0.15_PT048H.grib2 2026-04-12 16:24 1.6M
20260412T12Z_MSC_GDPS_Rain-Accum24h_Sfc_LatLon0.15_PT048H.grib2 2026-04-12 16:24 3.0M
20260412T12Z_MSC_GDPS_Rain-Accum3h_Sfc_LatLon0.15_PT048H.grib2 2026-04-12 16:24 1.7M
20260412T12Z_MSC_GDPS_Rain-Accum6h_Sfc_LatLon0.15_PT048H.grib2 2026-04-12 16:24 2.4M
20260412T12Z_MSC_GDPS_Rain-Accum_Sfc_LatLon0.15_PT048H.grib2 2026-04-12 16:24 3.3M
20260412T12Z_MSC_GDPS_RelativeHumidity_AGL-2m_LatLon0.15_PT048H.grib2 2026-04-12 16:24 1.0M
20260412T12Z_MSC_GDPS_RelativeHumidity_IsbL-0010_LatLon0.15_PT048H.grib2 2026-04-12 16:24 240K
20260412T12Z_MSC_GDPS_RelativeHumidity_IsbL-0020_LatLon0.15_PT048H.grib2 2026-04-12 16:24 390K
20260412T12Z_MSC_GDPS_RelativeHumidity_IsbL-0030_LatLon0.15_PT048H.grib2 2026-04-12 16:24 527K
20260412T12Z_MSC_GDPS_RelativeHumidity_IsbL-0050_LatLon0.15_PT048H.grib2 2026-04-12 16:24 323K
20260412T12Z_MSC_GDPS_RelativeHumidity_IsbL-0100_LatLon0.15_PT048H.grib2 2026-04-12 16:24 496K
20260412T12Z_MSC_GDPS_RelativeHumidity_IsbL-0150_LatLon0.15_PT048H.grib2 2026-04-12 16:24 648K
20260412T12Z_MSC_GDPS_RelativeHumidity_IsbL-0175_LatLon0.15_PT048H.grib2 2026-04-12 16:24 772K
20260412T12Z_MSC_GDPS_RelativeHumidity_IsbL-0200_LatLon0.15_PT048H.grib2 2026-04-12 16:24 673K
20260412T12Z_MSC_GDPS_RelativeHumidity_IsbL-0225_LatLon0.15_PT048H.grib2 2026-04-12 16:24 769K
20260412T12Z_MSC_GDPS_RelativeHumidity_IsbL-0250_LatLon0.15_PT048H.grib2 2026-04-12 16:24 854K
20260412T12Z_MSC_GDPS_RelativeHumidity_IsbL-0275_LatLon0.15_PT048H.grib2 2026-04-12 16:24 881K
20260412T12Z_MSC_GDPS_RelativeHumidity_IsbL-0300_LatLon0.15_PT048H.grib2 2026-04-12 16:24 932K
20260412T12Z_MSC_GDPS_RelativeHumidity_IsbL-0350_LatLon0.15_PT048H.grib2 2026-04-12 16:24 956K
20260412T12Z_MSC_GDPS_RelativeHumidity_IsbL-0400_LatLon0.15_PT048H.grib2 2026-04-12 16:24 1.0M
20260412T12Z_MSC_GDPS_RelativeHumidity_IsbL-0450_LatLon0.15_PT048H.grib2 2026-04-12 16:24 1.0M
20260412T12Z_MSC_GDPS_RelativeHumidity_IsbL-0500_LatLon0.15_PT048H.grib2 2026-04-12 16:24 1.0M
20260412T12Z_MSC_GDPS_RelativeHumidity_IsbL-0550_LatLon0.15_PT048H.grib2 2026-04-12 16:24 1.0M
20260412T12Z_MSC_GDPS_RelativeHumidity_IsbL-0600_LatLon0.15_PT048H.grib2 2026-04-12 16:24 1.1M
20260412T12Z_MSC_GDPS_RelativeHumidity_IsbL-0650_LatLon0.15_PT048H.grib2 2026-04-12 16:24 1.1M
20260412T12Z_MSC_GDPS_RelativeHumidity_IsbL-0700_LatLon0.15_PT048H.grib2 2026-04-12 16:24 1.1M
20260412T12Z_MSC_GDPS_RelativeHumidity_IsbL-0750_LatLon0.15_PT048H.grib2 2026-04-12 16:24 1.2M
20260412T12Z_MSC_GDPS_RelativeHumidity_IsbL-0800_LatLon0.15_PT048H.grib2 2026-04-12 16:24 1.2M
20260412T12Z_MSC_GDPS_RelativeHumidity_IsbL-0850_LatLon0.15_PT048H.grib2 2026-04-12 16:24 1.3M
20260412T12Z_MSC_GDPS_RelativeHumidity_IsbL-0875_LatLon0.15_PT048H.grib2 2026-04-12 16:24 1.3M
20260412T12Z_MSC_GDPS_RelativeHumidity_IsbL-0900_LatLon0.15_PT048H.grib2 2026-04-12 16:24 1.2M
20260412T12Z_MSC_GDPS_RelativeHumidity_IsbL-0925_LatLon0.15_PT048H.grib2 2026-04-12 16:24 1.2M
20260412T12Z_MSC_GDPS_RelativeHumidity_IsbL-0950_LatLon0.15_PT048H.grib2 2026-04-12 16:24 1.2M
20260412T12Z_MSC_GDPS_RelativeHumidity_IsbL-0970_LatLon0.15_PT048H.grib2 2026-04-12 16:24 1.2M
20260412T12Z_MSC_GDPS_RelativeHumidity_IsbL-0985_LatLon0.15_PT048H.grib2 2026-04-12 16:24 1.1M
20260412T12Z_MSC_GDPS_RelativeHumidity_IsbL-1000_LatLon0.15_PT048H.grib2 2026-04-12 16:24 1.1M
20260412T12Z_MSC_GDPS_RelativeHumidity_IsbL-1015_LatLon0.15_PT048H.grib2 2026-04-12 16:24 1.0M
20260412T12Z_MSC_GDPS_RelativeVorticity_IsbL-0200_LatLon0.15_PT048H.grib2 2026-04-12 16:24 1.2M
20260412T12Z_MSC_GDPS_RelativeVorticity_IsbL-0250_LatLon0.15_PT048H.grib2 2026-04-12 16:24 1.3M
20260412T12Z_MSC_GDPS_RelativeVorticity_IsbL-0500_LatLon0.15_PT048H.grib2 2026-04-12 16:24 1.5M
20260412T12Z_MSC_GDPS_RelativeVorticity_IsbL-0700_LatLon0.15_PT048H.grib2 2026-04-12 16:24 1.3M
20260412T12Z_MSC_GDPS_RelativeVorticity_IsbL-0850_LatLon0.15_PT048H.grib2 2026-04-12 16:24 1.6M
20260412T12Z_MSC_GDPS_Runoff-Accum_Sfc_LatLon0.15_PT048H.grib2 2026-04-12 16:24 74K
20260412T12Z_MSC_GDPS_SensibleHeatNetFlux_Sfc_LatLon0.15_PT048H.grib2 2026-04-12 16:24 473K
20260412T12Z_MSC_GDPS_ShowalterIndex_IsbL-0500_LatLon0.15_PT048H.grib2 2026-04-12 16:24 6.2M
20260412T12Z_MSC_GDPS_Snow-Accum12h_Sfc_LatLon0.15_PT048H.grib2 2026-04-12 16:24 1.4M
20260412T12Z_MSC_GDPS_Snow-Accum1h_Sfc_LatLon0.15_PT048H.grib2 2026-04-12 16:24 1.2M
20260412T12Z_MSC_GDPS_Snow-Accum24h_Sfc_LatLon0.15_PT048H.grib2 2026-04-12 16:24 1.4M
20260412T12Z_MSC_GDPS_Snow-Accum3h_Sfc_LatLon0.15_PT048H.grib2 2026-04-12 16:24 1.1M
20260412T12Z_MSC_GDPS_Snow-Accum6h_Sfc_LatLon0.15_PT048H.grib2 2026-04-12 16:24 1.5M
20260412T12Z_MSC_GDPS_Snow-Accum_Sfc_LatLon0.15_PT048H.grib2 2026-04-12 16:24 1.8M
20260412T12Z_MSC_GDPS_SnowDensity_Sfc_LatLon0.15_PT048H.grib2 2026-04-12 16:24 266K
20260412T12Z_MSC_GDPS_SnowDepth_Sfc_LatLon0.15_PT048H.grib2 2026-04-12 16:24 1.8M
20260412T12Z_MSC_GDPS_SoilTemp_DBS-0to10cm_LatLon0.15_PT048H.grib2 2026-04-12 16:24 502K
20260412T12Z_MSC_GDPS_SoilTemp_Sfc_LatLon0.15_PT048H.grib2 2026-04-12 16:24 568K
20260412T12Z_MSC_GDPS_SoilVolumetricIceContent_Sfc_LatLon0.15_PT048H.grib2 2026-04-12 16:24 227K
20260412T12Z_MSC_GDPS_SoilVolumetricWaterContent_DBS-0to10cm_LatLon0.15_PT048H.grib2 2026-04-12 16:24 551K
20260412T12Z_MSC_GDPS_SoilVolumetricWaterContent_DBS-0to1cm_LatLon0.15_PT048H.grib2 2026-04-12 16:24 650K
20260412T12Z_MSC_GDPS_SpecificHumidity_AGL-120m_LatLon0.15_PT048H.grib2 2026-04-12 16:24 1.1M
20260412T12Z_MSC_GDPS_SpecificHumidity_AGL-2m_LatLon0.15_PT048H.grib2 2026-04-12 16:24 1.2M
20260412T12Z_MSC_GDPS_SpecificHumidity_AGL-40m_LatLon0.15_PT048H.grib2 2026-04-12 16:24 1.1M
20260412T12Z_MSC_GDPS_SpecificHumidity_AGL-80m_LatLon0.15_PT048H.grib2 2026-04-12 16:24 1.1M
20260412T12Z_MSC_GDPS_SpecificHumidity_IsbL-0001_LatLon0.15_PT048H.grib2 2026-04-12 16:24 1.2M
20260412T12Z_MSC_GDPS_SpecificHumidity_IsbL-0005_LatLon0.15_PT048H.grib2 2026-04-12 16:24 1.2M
20260412T12Z_MSC_GDPS_SpecificHumidity_IsbL-0010_LatLon0.15_PT048H.grib2 2026-04-12 16:24 1.3M
20260412T12Z_MSC_GDPS_SpecificHumidity_IsbL-0020_LatLon0.15_PT048H.grib2 2026-04-12 16:24 1.4M
20260412T12Z_MSC_GDPS_SpecificHumidity_IsbL-0030_LatLon0.15_PT048H.grib2 2026-04-12 16:24 1.4M
20260412T12Z_MSC_GDPS_SpecificHumidity_IsbL-0050_LatLon0.15_PT048H.grib2 2026-04-12 16:24 1.4M
20260412T12Z_MSC_GDPS_SpecificHumidity_IsbL-0100_LatLon0.15_PT048H.grib2 2026-04-12 16:24 1.3M
20260412T12Z_MSC_GDPS_SpecificHumidity_IsbL-0150_LatLon0.15_PT048H.grib2 2026-04-12 16:24 1.3M
20260412T12Z_MSC_GDPS_SpecificHumidity_IsbL-0175_LatLon0.15_PT048H.grib2 2026-04-12 16:24 1.0M
20260412T12Z_MSC_GDPS_SpecificHumidity_IsbL-0200_LatLon0.15_PT048H.grib2 2026-04-12 16:24 1.0M
20260412T12Z_MSC_GDPS_SpecificHumidity_IsbL-0225_LatLon0.15_PT048H.grib2 2026-04-12 16:24 1.2M
20260412T12Z_MSC_GDPS_SpecificHumidity_IsbL-0250_LatLon0.15_PT048H.grib2 2026-04-12 16:24 1.2M
20260412T12Z_MSC_GDPS_SpecificHumidity_IsbL-0275_LatLon0.15_PT048H.grib2 2026-04-12 16:24 1.1M
20260412T12Z_MSC_GDPS_SpecificHumidity_IsbL-0300_LatLon0.15_PT048H.grib2 2026-04-12 16:24 1.2M
20260412T12Z_MSC_GDPS_SpecificHumidity_IsbL-0350_LatLon0.15_PT048H.grib2 2026-04-12 16:24 1.2M
20260412T12Z_MSC_GDPS_SpecificHumidity_IsbL-0400_LatLon0.15_PT048H.grib2 2026-04-12 16:24 1.4M
20260412T12Z_MSC_GDPS_SpecificHumidity_IsbL-0450_LatLon0.15_PT048H.grib2 2026-04-12 16:24 1.3M
20260412T12Z_MSC_GDPS_SpecificHumidity_IsbL-0500_LatLon0.15_PT048H.grib2 2026-04-12 16:24 1.5M
20260412T12Z_MSC_GDPS_SpecificHumidity_IsbL-0550_LatLon0.15_PT048H.grib2 2026-04-12 16:24 1.3M
20260412T12Z_MSC_GDPS_SpecificHumidity_IsbL-0600_LatLon0.15_PT048H.grib2 2026-04-12 16:24 1.4M
20260412T12Z_MSC_GDPS_SpecificHumidity_IsbL-0650_LatLon0.15_PT048H.grib2 2026-04-12 16:24 1.5M
20260412T12Z_MSC_GDPS_SpecificHumidity_IsbL-0700_LatLon0.15_PT048H.grib2 2026-04-12 16:24 1.6M
20260412T12Z_MSC_GDPS_SpecificHumidity_IsbL-0750_LatLon0.15_PT048H.grib2 2026-04-12 16:24 1.7M
20260412T12Z_MSC_GDPS_SpecificHumidity_IsbL-0800_LatLon0.15_PT048H.grib2 2026-04-12 16:24 1.8M
20260412T12Z_MSC_GDPS_SpecificHumidity_IsbL-0850_LatLon0.15_PT048H.grib2 2026-04-12 16:24 1.9M
20260412T12Z_MSC_GDPS_SpecificHumidity_IsbL-0875_LatLon0.15_PT048H.grib2 2026-04-12 16:24 1.9M
20260412T12Z_MSC_GDPS_SpecificHumidity_IsbL-0900_LatLon0.15_PT048H.grib2 2026-04-12 16:24 1.6M
20260412T12Z_MSC_GDPS_SpecificHumidity_IsbL-0925_LatLon0.15_PT048H.grib2 2026-04-12 16:24 1.6M
20260412T12Z_MSC_GDPS_SpecificHumidity_IsbL-0950_LatLon0.15_PT048H.grib2 2026-04-12 16:24 1.5M
20260412T12Z_MSC_GDPS_SpecificHumidity_IsbL-0970_LatLon0.15_PT048H.grib2 2026-04-12 16:24 1.5M
20260412T12Z_MSC_GDPS_SpecificHumidity_IsbL-0985_LatLon0.15_PT048H.grib2 2026-04-12 16:24 1.5M
20260412T12Z_MSC_GDPS_SpecificHumidity_IsbL-1000_LatLon0.15_PT048H.grib2 2026-04-12 16:24 1.5M
20260412T12Z_MSC_GDPS_SpecificHumidity_IsbL-1015_LatLon0.15_PT048H.grib2 2026-04-12 16:24 1.4M
20260412T12Z_MSC_GDPS_SpecificHumidity_Sfc_LatLon0.15_PT048H.grib2 2026-04-12 16:24 664K
20260412T12Z_MSC_GDPS_Thickness_IsbL-0850to0700_LatLon0.15_PT048H.grib2 2026-04-12 16:24 469K
20260412T12Z_MSC_GDPS_Thickness_IsbL-1000to0500_LatLon0.15_PT048H.grib2 2026-04-12 16:24 369K
20260412T12Z_MSC_GDPS_Thickness_IsbL-1000to0850_LatLon0.15_PT048H.grib2 2026-04-12 16:24 488K
20260412T12Z_MSC_GDPS_TotalCloudCover_Sfc_LatLon0.15_PT048H.grib2 2026-04-12 16:24 829K
20260412T12Z_MSC_GDPS_TotalTotalsIndex_Sfc_LatLon0.15_PT048H.grib2 2026-04-12 16:24 6.2M
20260412T12Z_MSC_GDPS_UVIndex-ClearSky_Sfc_LatLon0.15_PT048H.grib2 2026-04-12 17:05 1.0M
20260412T12Z_MSC_GDPS_UVIndex_Sfc_LatLon0.15_PT048H.grib2 2026-04-12 17:05 1.4M
20260412T12Z_MSC_GDPS_UpwardLongwaveRadiationFlux_NTAtm_LatLon0.15_PT048H.grib2 2026-04-12 16:24 835K
20260412T12Z_MSC_GDPS_VerticalVelocity_IsbL-0200_LatLon0.15_PT048H.grib2 2026-04-12 16:24 1.2M
20260412T12Z_MSC_GDPS_VerticalVelocity_IsbL-0250_LatLon0.15_PT048H.grib2 2026-04-12 16:24 1.0M
20260412T12Z_MSC_GDPS_VerticalVelocity_IsbL-0500_LatLon0.15_PT048H.grib2 2026-04-12 16:24 1.0M
20260412T12Z_MSC_GDPS_VerticalVelocity_IsbL-0600_LatLon0.15_PT048H.grib2 2026-04-12 16:24 1.1M
20260412T12Z_MSC_GDPS_VerticalVelocity_IsbL-0700_LatLon0.15_PT048H.grib2 2026-04-12 16:24 1.1M
20260412T12Z_MSC_GDPS_VerticalVelocity_IsbL-0850_LatLon0.15_PT048H.grib2 2026-04-12 16:24 1.6M
20260412T12Z_MSC_GDPS_WindChill_Sfc_LatLon0.15_PT048H.grib2 2026-04-12 16:24 5.4M
20260412T12Z_MSC_GDPS_WindDir_AGL-10m_LatLon0.15_PT048H.grib2 2026-04-12 16:24 1.3M
20260412T12Z_MSC_GDPS_WindDir_AGL-120m_LatLon0.15_PT048H.grib2 2026-04-12 16:24 1.3M
20260412T12Z_MSC_GDPS_WindDir_AGL-40m_LatLon0.15_PT048H.grib2 2026-04-12 16:24 1.4M
20260412T12Z_MSC_GDPS_WindDir_AGL-80m_LatLon0.15_PT048H.grib2 2026-04-12 16:24 1.4M
20260412T12Z_MSC_GDPS_WindDir_IsbL-0001_LatLon0.15_PT048H.grib2 2026-04-12 16:24 623K
20260412T12Z_MSC_GDPS_WindDir_IsbL-0005_LatLon0.15_PT048H.grib2 2026-04-12 16:24 775K
20260412T12Z_MSC_GDPS_WindDir_IsbL-0010_LatLon0.15_PT048H.grib2 2026-04-12 16:24 854K
20260412T12Z_MSC_GDPS_WindDir_IsbL-0020_LatLon0.15_PT048H.grib2 2026-04-12 16:24 912K
20260412T12Z_MSC_GDPS_WindDir_IsbL-0030_LatLon0.15_PT048H.grib2 2026-04-12 16:24 880K
20260412T12Z_MSC_GDPS_WindDir_IsbL-0050_LatLon0.15_PT048H.grib2 2026-04-12 16:24 956K
20260412T12Z_MSC_GDPS_WindDir_IsbL-0100_LatLon0.15_PT048H.grib2 2026-04-12 16:24 1.0M
20260412T12Z_MSC_GDPS_WindDir_IsbL-0150_LatLon0.15_PT048H.grib2 2026-04-12 16:24 1.0M
20260412T12Z_MSC_GDPS_WindDir_IsbL-0175_LatLon0.15_PT048H.grib2 2026-04-12 16:24 1.0M
20260412T12Z_MSC_GDPS_WindDir_IsbL-0200_LatLon0.15_PT048H.grib2 2026-04-12 16:24 1.1M
20260412T12Z_MSC_GDPS_WindDir_IsbL-0225_LatLon0.15_PT048H.grib2 2026-04-12 16:24 1.1M
20260412T12Z_MSC_GDPS_WindDir_IsbL-0250_LatLon0.15_PT048H.grib2 2026-04-12 16:24 1.1M
20260412T12Z_MSC_GDPS_WindDir_IsbL-0275_LatLon0.15_PT048H.grib2 2026-04-12 16:24 1.2M
20260412T12Z_MSC_GDPS_WindDir_IsbL-0300_LatLon0.15_PT048H.grib2 2026-04-12 16:24 1.2M
20260412T12Z_MSC_GDPS_WindDir_IsbL-0350_LatLon0.15_PT048H.grib2 2026-04-12 16:24 1.2M
20260412T12Z_MSC_GDPS_WindDir_IsbL-0400_LatLon0.15_PT048H.grib2 2026-04-12 16:24 1.3M
20260412T12Z_MSC_GDPS_WindDir_IsbL-0450_LatLon0.15_PT048H.grib2 2026-04-12 16:24 1.3M
20260412T12Z_MSC_GDPS_WindDir_IsbL-0500_LatLon0.15_PT048H.grib2 2026-04-12 16:24 1.4M
20260412T12Z_MSC_GDPS_WindDir_IsbL-0550_LatLon0.15_PT048H.grib2 2026-04-12 16:24 1.4M
20260412T12Z_MSC_GDPS_WindDir_IsbL-0600_LatLon0.15_PT048H.grib2 2026-04-12 16:24 1.5M
20260412T12Z_MSC_GDPS_WindDir_IsbL-0650_LatLon0.15_PT048H.grib2 2026-04-12 16:24 1.5M
20260412T12Z_MSC_GDPS_WindDir_IsbL-0700_LatLon0.15_PT048H.grib2 2026-04-12 16:24 1.6M
20260412T12Z_MSC_GDPS_WindDir_IsbL-0750_LatLon0.15_PT048H.grib2 2026-04-12 16:24 1.7M
20260412T12Z_MSC_GDPS_WindDir_IsbL-0800_LatLon0.15_PT048H.grib2 2026-04-12 16:24 1.8M
20260412T12Z_MSC_GDPS_WindDir_IsbL-0850_LatLon0.15_PT048H.grib2 2026-04-12 16:24 1.9M
20260412T12Z_MSC_GDPS_WindDir_IsbL-0875_LatLon0.15_PT048H.grib2 2026-04-12 16:24 1.9M
20260412T12Z_MSC_GDPS_WindDir_IsbL-0900_LatLon0.15_PT048H.grib2 2026-04-12 16:24 1.9M
20260412T12Z_MSC_GDPS_WindDir_IsbL-0925_LatLon0.15_PT048H.grib2 2026-04-12 16:24 1.9M
20260412T12Z_MSC_GDPS_WindDir_IsbL-0950_LatLon0.15_PT048H.grib2 2026-04-12 16:24 1.9M
20260412T12Z_MSC_GDPS_WindDir_IsbL-0970_LatLon0.15_PT048H.grib2 2026-04-12 16:24 2.0M
20260412T12Z_MSC_GDPS_WindDir_IsbL-0985_LatLon0.15_PT048H.grib2 2026-04-12 16:24 2.0M
20260412T12Z_MSC_GDPS_WindDir_IsbL-1000_LatLon0.15_PT048H.grib2 2026-04-12 16:24 2.0M
20260412T12Z_MSC_GDPS_WindDir_IsbL-1015_LatLon0.15_PT048H.grib2 2026-04-12 16:24 2.0M
20260412T12Z_MSC_GDPS_WindGust-Max_AGL-10m_LatLon0.15_PT048H.grib2 2026-04-12 16:24 2.2M
20260412T12Z_MSC_GDPS_WindGust-Min_AGL-10m_LatLon0.15_PT048H.grib2 2026-04-12 16:24 2.2M
20260412T12Z_MSC_GDPS_WindGust_AGL-10m_LatLon0.15_PT048H.grib2 2026-04-12 16:24 2.2M
20260412T12Z_MSC_GDPS_WindSpeed_AGL-10m_LatLon0.15_PT048H.grib2 2026-04-12 16:24 1.1M
20260412T12Z_MSC_GDPS_WindSpeed_AGL-120m_LatLon0.15_PT048H.grib2 2026-04-12 16:24 1.2M
20260412T12Z_MSC_GDPS_WindSpeed_AGL-40m_LatLon0.15_PT048H.grib2 2026-04-12 16:24 1.2M
20260412T12Z_MSC_GDPS_WindSpeed_AGL-80m_LatLon0.15_PT048H.grib2 2026-04-12 16:24 1.2M
20260412T12Z_MSC_GDPS_WindSpeed_IsbL-0001_LatLon0.15_PT048H.grib2 2026-04-12 16:24 633K
20260412T12Z_MSC_GDPS_WindSpeed_IsbL-0005_LatLon0.15_PT048H.grib2 2026-04-12 16:24 686K
20260412T12Z_MSC_GDPS_WindSpeed_IsbL-0010_LatLon0.15_PT048H.grib2 2026-04-12 16:24 626K
20260412T12Z_MSC_GDPS_WindSpeed_IsbL-0020_LatLon0.15_PT048H.grib2 2026-04-12 16:24 671K
20260412T12Z_MSC_GDPS_WindSpeed_IsbL-0030_LatLon0.15_PT048H.grib2 2026-04-12 16:24 858K
20260412T12Z_MSC_GDPS_WindSpeed_IsbL-0050_LatLon0.15_PT048H.grib2 2026-04-12 16:24 917K
20260412T12Z_MSC_GDPS_WindSpeed_IsbL-0100_LatLon0.15_PT048H.grib2 2026-04-12 16:24 1.1M
20260412T12Z_MSC_GDPS_WindSpeed_IsbL-0150_LatLon0.15_PT048H.grib2 2026-04-12 16:24 938K
20260412T12Z_MSC_GDPS_WindSpeed_IsbL-0175_LatLon0.15_PT048H.grib2 2026-04-12 16:24 1.0M
20260412T12Z_MSC_GDPS_WindSpeed_IsbL-0200_LatLon0.15_PT048H.grib2 2026-04-12 16:24 1.1M
20260412T12Z_MSC_GDPS_WindSpeed_IsbL-0225_LatLon0.15_PT048H.grib2 2026-04-12 16:24 1.1M
20260412T12Z_MSC_GDPS_WindSpeed_IsbL-0250_LatLon0.15_PT048H.grib2 2026-04-12 16:24 1.1M
20260412T12Z_MSC_GDPS_WindSpeed_IsbL-0275_LatLon0.15_PT048H.grib2 2026-04-12 16:24 1.1M
20260412T12Z_MSC_GDPS_WindSpeed_IsbL-0300_LatLon0.15_PT048H.grib2 2026-04-12 16:24 1.1M
20260412T12Z_MSC_GDPS_WindSpeed_IsbL-0350_LatLon0.15_PT048H.grib2 2026-04-12 16:24 1.1M
20260412T12Z_MSC_GDPS_WindSpeed_IsbL-0400_LatLon0.15_PT048H.grib2 2026-04-12 16:24 1.1M
20260412T12Z_MSC_GDPS_WindSpeed_IsbL-0450_LatLon0.15_PT048H.grib2 2026-04-12 16:24 1.1M
20260412T12Z_MSC_GDPS_WindSpeed_IsbL-0500_LatLon0.15_PT048H.grib2 2026-04-12 16:24 1.1M
20260412T12Z_MSC_GDPS_WindSpeed_IsbL-0550_LatLon0.15_PT048H.grib2 2026-04-12 16:24 1.1M
20260412T12Z_MSC_GDPS_WindSpeed_IsbL-0600_LatLon0.15_PT048H.grib2 2026-04-12 16:24 1.1M
20260412T12Z_MSC_GDPS_WindSpeed_IsbL-0650_LatLon0.15_PT048H.grib2 2026-04-12 16:24 1.2M
20260412T12Z_MSC_GDPS_WindSpeed_IsbL-0700_LatLon0.15_PT048H.grib2 2026-04-12 16:24 1.5M
20260412T12Z_MSC_GDPS_WindSpeed_IsbL-0750_LatLon0.15_PT048H.grib2 2026-04-12 16:24 1.5M
20260412T12Z_MSC_GDPS_WindSpeed_IsbL-0800_LatLon0.15_PT048H.grib2 2026-04-12 16:24 1.6M
20260412T12Z_MSC_GDPS_WindSpeed_IsbL-0850_LatLon0.15_PT048H.grib2 2026-04-12 16:24 1.7M
20260412T12Z_MSC_GDPS_WindSpeed_IsbL-0875_LatLon0.15_PT048H.grib2 2026-04-12 16:24 1.8M
20260412T12Z_MSC_GDPS_WindSpeed_IsbL-0900_LatLon0.15_PT048H.grib2 2026-04-12 16:24 1.9M
20260412T12Z_MSC_GDPS_WindSpeed_IsbL-0925_LatLon0.15_PT048H.grib2 2026-04-12 16:24 1.9M
20260412T12Z_MSC_GDPS_WindSpeed_IsbL-0950_LatLon0.15_PT048H.grib2 2026-04-12 16:24 1.9M
20260412T12Z_MSC_GDPS_WindSpeed_IsbL-0970_LatLon0.15_PT048H.grib2 2026-04-12 16:24 1.9M
20260412T12Z_MSC_GDPS_WindSpeed_IsbL-0985_LatLon0.15_PT048H.grib2 2026-04-12 16:24 1.9M
20260412T12Z_MSC_GDPS_WindSpeed_IsbL-1000_LatLon0.15_PT048H.grib2 2026-04-12 16:24 1.9M
20260412T12Z_MSC_GDPS_WindSpeed_IsbL-1015_LatLon0.15_PT048H.grib2 2026-04-12 16:24 1.8M
20260412T12Z_MSC_GDPS_WindU_AGL-10m_LatLon0.15_PT048H.grib2 2026-04-12 16:24 1.3M
20260412T12Z_MSC_GDPS_WindU_AGL-120m_LatLon0.15_PT048H.grib2 2026-04-12 16:24 968K
20260412T12Z_MSC_GDPS_WindU_AGL-40m_LatLon0.15_PT048H.grib2 2026-04-12 16:24 964K
20260412T12Z_MSC_GDPS_WindU_AGL-80m_LatLon0.15_PT048H.grib2 2026-04-12 16:24 968K
20260412T12Z_MSC_GDPS_WindU_IsbL-0001_LatLon0.15_PT048H.grib2 2026-04-12 16:24 496K
20260412T12Z_MSC_GDPS_WindU_IsbL-0005_LatLon0.15_PT048H.grib2 2026-04-12 16:24 686K
20260412T12Z_MSC_GDPS_WindU_IsbL-0010_LatLon0.15_PT048H.grib2 2026-04-12 16:24 704K
20260412T12Z_MSC_GDPS_WindU_IsbL-0020_LatLon0.15_PT048H.grib2 2026-04-12 16:24 662K
20260412T12Z_MSC_GDPS_WindU_IsbL-0030_LatLon0.15_PT048H.grib2 2026-04-12 16:24 739K
20260412T12Z_MSC_GDPS_WindU_IsbL-0050_LatLon0.15_PT048H.grib2 2026-04-12 16:24 707K
20260412T12Z_MSC_GDPS_WindU_IsbL-0100_LatLon0.15_PT048H.grib2 2026-04-12 16:24 929K
20260412T12Z_MSC_GDPS_WindU_IsbL-0150_LatLon0.15_PT048H.grib2 2026-04-12 16:24 1.0M
20260412T12Z_MSC_GDPS_WindU_IsbL-0175_LatLon0.15_PT048H.grib2 2026-04-12 16:24 1.0M
20260412T12Z_MSC_GDPS_WindU_IsbL-0200_LatLon0.15_PT048H.grib2 2026-04-12 16:24 1.0M
20260412T12Z_MSC_GDPS_WindU_IsbL-0225_LatLon0.15_PT048H.grib2 2026-04-12 16:24 853K
20260412T12Z_MSC_GDPS_WindU_IsbL-0250_LatLon0.15_PT048H.grib2 2026-04-12 16:24 855K
20260412T12Z_MSC_GDPS_WindU_IsbL-0275_LatLon0.15_PT048H.grib2 2026-04-12 16:24 883K
20260412T12Z_MSC_GDPS_WindU_IsbL-0300_LatLon0.15_PT048H.grib2 2026-04-12 16:24 875K
20260412T12Z_MSC_GDPS_WindU_IsbL-0350_LatLon0.15_PT048H.grib2 2026-04-12 16:24 889K
20260412T12Z_MSC_GDPS_WindU_IsbL-0400_LatLon0.15_PT048H.grib2 2026-04-12 16:24 889K
20260412T12Z_MSC_GDPS_WindU_IsbL-0450_LatLon0.15_PT048H.grib2 2026-04-12 16:24 892K
20260412T12Z_MSC_GDPS_WindU_IsbL-0500_LatLon0.15_PT048H.grib2 2026-04-12 16:24 896K
20260412T12Z_MSC_GDPS_WindU_IsbL-0550_LatLon0.15_PT048H.grib2 2026-04-12 16:24 1.1M
20260412T12Z_MSC_GDPS_WindU_IsbL-0600_LatLon0.15_PT048H.grib2 2026-04-12 16:24 1.1M
20260412T12Z_MSC_GDPS_WindU_IsbL-0650_LatLon0.15_PT048H.grib2 2026-04-12 16:24 1.2M
20260412T12Z_MSC_GDPS_WindU_IsbL-0700_LatLon0.15_PT048H.grib2 2026-04-12 16:24 1.2M
20260412T12Z_MSC_GDPS_WindU_IsbL-0750_LatLon0.15_PT048H.grib2 2026-04-12 16:24 1.3M
20260412T12Z_MSC_GDPS_WindU_IsbL-0800_LatLon0.15_PT048H.grib2 2026-04-12 16:24 1.3M
20260412T12Z_MSC_GDPS_WindU_IsbL-0850_LatLon0.15_PT048H.grib2 2026-04-12 16:24 1.4M
20260412T12Z_MSC_GDPS_WindU_IsbL-0875_LatLon0.15_PT048H.grib2 2026-04-12 16:24 1.5M
20260412T12Z_MSC_GDPS_WindU_IsbL-0900_LatLon0.15_PT048H.grib2 2026-04-12 16:24 1.5M
20260412T12Z_MSC_GDPS_WindU_IsbL-0925_LatLon0.15_PT048H.grib2 2026-04-12 16:24 1.5M
20260412T12Z_MSC_GDPS_WindU_IsbL-0950_LatLon0.15_PT048H.grib2 2026-04-12 16:24 1.4M
20260412T12Z_MSC_GDPS_WindU_IsbL-0970_LatLon0.15_PT048H.grib2 2026-04-12 16:24 1.4M
20260412T12Z_MSC_GDPS_WindU_IsbL-0985_LatLon0.15_PT048H.grib2 2026-04-12 16:24 1.4M
20260412T12Z_MSC_GDPS_WindU_IsbL-1000_LatLon0.15_PT048H.grib2 2026-04-12 16:24 1.4M
20260412T12Z_MSC_GDPS_WindU_IsbL-1015_LatLon0.15_PT048H.grib2 2026-04-12 16:24 1.3M
20260412T12Z_MSC_GDPS_WindV_AGL-10m_LatLon0.15_PT048H.grib2 2026-04-12 16:24 1.3M
20260412T12Z_MSC_GDPS_WindV_AGL-120m_LatLon0.15_PT048H.grib2 2026-04-12 16:24 967K
20260412T12Z_MSC_GDPS_WindV_AGL-40m_LatLon0.15_PT048H.grib2 2026-04-12 16:24 962K
20260412T12Z_MSC_GDPS_WindV_AGL-80m_LatLon0.15_PT048H.grib2 2026-04-12 16:24 967K
20260412T12Z_MSC_GDPS_WindV_IsbL-0001_LatLon0.15_PT048H.grib2 2026-04-12 16:24 544K
20260412T12Z_MSC_GDPS_WindV_IsbL-0005_LatLon0.15_PT048H.grib2 2026-04-12 16:24 605K
20260412T12Z_MSC_GDPS_WindV_IsbL-0010_LatLon0.15_PT048H.grib2 2026-04-12 16:24 630K
20260412T12Z_MSC_GDPS_WindV_IsbL-0020_LatLon0.15_PT048H.grib2 2026-04-12 16:24 859K
20260412T12Z_MSC_GDPS_WindV_IsbL-0030_LatLon0.15_PT048H.grib2 2026-04-12 16:24 856K
20260412T12Z_MSC_GDPS_WindV_IsbL-0050_LatLon0.15_PT048H.grib2 2026-04-12 16:24 909K
20260412T12Z_MSC_GDPS_WindV_IsbL-0100_LatLon0.15_PT048H.grib2 2026-04-12 16:24 1.1M
20260412T12Z_MSC_GDPS_WindV_IsbL-0150_LatLon0.15_PT048H.grib2 2026-04-12 16:24 1.0M
20260412T12Z_MSC_GDPS_WindV_IsbL-0175_LatLon0.15_PT048H.grib2 2026-04-12 16:24 1.0M
20260412T12Z_MSC_GDPS_WindV_IsbL-0200_LatLon0.15_PT048H.grib2 2026-04-12 16:24 1.0M
20260412T12Z_MSC_GDPS_WindV_IsbL-0225_LatLon0.15_PT048H.grib2 2026-04-12 16:24 850K
20260412T12Z_MSC_GDPS_WindV_IsbL-0250_LatLon0.15_PT048H.grib2 2026-04-12 16:24 849K
20260412T12Z_MSC_GDPS_WindV_IsbL-0275_LatLon0.15_PT048H.grib2 2026-04-12 16:24 875K
20260412T12Z_MSC_GDPS_WindV_IsbL-0300_LatLon0.15_PT048H.grib2 2026-04-12 16:24 867K
20260412T12Z_MSC_GDPS_WindV_IsbL-0350_LatLon0.15_PT048H.grib2 2026-04-12 16:24 880K
20260412T12Z_MSC_GDPS_WindV_IsbL-0400_LatLon0.15_PT048H.grib2 2026-04-12 16:24 880K
20260412T12Z_MSC_GDPS_WindV_IsbL-0450_LatLon0.15_PT048H.grib2 2026-04-12 16:24 880K
20260412T12Z_MSC_GDPS_WindV_IsbL-0500_LatLon0.15_PT048H.grib2 2026-04-12 16:24 1.1M
20260412T12Z_MSC_GDPS_WindV_IsbL-0550_LatLon0.15_PT048H.grib2 2026-04-12 16:24 1.1M
20260412T12Z_MSC_GDPS_WindV_IsbL-0600_LatLon0.15_PT048H.grib2 2026-04-12 16:24 1.1M
20260412T12Z_MSC_GDPS_WindV_IsbL-0650_LatLon0.15_PT048H.grib2 2026-04-12 16:24 1.2M
20260412T12Z_MSC_GDPS_WindV_IsbL-0700_LatLon0.15_PT048H.grib2 2026-04-12 16:24 1.2M
20260412T12Z_MSC_GDPS_WindV_IsbL-0750_LatLon0.15_PT048H.grib2 2026-04-12 16:24 1.3M
20260412T12Z_MSC_GDPS_WindV_IsbL-0800_LatLon0.15_PT048H.grib2 2026-04-12 16:24 1.3M
20260412T12Z_MSC_GDPS_WindV_IsbL-0850_LatLon0.15_PT048H.grib2 2026-04-12 16:24 1.4M
20260412T12Z_MSC_GDPS_WindV_IsbL-0875_LatLon0.15_PT048H.grib2 2026-04-12 16:24 1.4M
20260412T12Z_MSC_GDPS_WindV_IsbL-0900_LatLon0.15_PT048H.grib2 2026-04-12 16:24 1.4M
20260412T12Z_MSC_GDPS_WindV_IsbL-0925_LatLon0.15_PT048H.grib2 2026-04-12 16:24 1.4M
20260412T12Z_MSC_GDPS_WindV_IsbL-0950_LatLon0.15_PT048H.grib2 2026-04-12 16:24 1.4M
20260412T12Z_MSC_GDPS_WindV_IsbL-0970_LatLon0.15_PT048H.grib2 2026-04-12 16:24 1.4M
20260412T12Z_MSC_GDPS_WindV_IsbL-0985_LatLon0.15_PT048H.grib2 2026-04-12 16:24 1.4M
20260412T12Z_MSC_GDPS_WindV_IsbL-1000_LatLon0.15_PT048H.grib2 2026-04-12 16:24 1.4M
20260412T12Z_MSC_GDPS_WindV_IsbL-1015_LatLon0.15_PT048H.grib2 2026-04-12 16:24 1.3M